Home > Weather > Offenbach > Past weeks

Flag for Germany Past Weather in Offenbach, Hesse, Germany — Yesterday and Last 2 Weeks

Now
64 °F

Sprinkles. Partly sunny.


Feels Like: 64 °F
Forecast: 54 / 68 °F
Wind: 13 mph from South

Location: Frankfurt-M-Flughafen Airport

Current Time: May 30, 2016 at 6:39:21 PM

Latest Report: May 30, 2016 at 6:20 PM


Visibility: N/A

Pressure: 29.65 "Hg

Humidity: 78%

Dew Point: 57 °F

Location of OffenbachLocation

Past Weather in Offenbach — Graph

°F

Offenbach Temperature Yesterday

Maximum temperature yesterday: 73 °F (at 3:50 PM)
Minimum temperature yesterday: 57 °F (at 2:50 AM)
Average temperature yesterday: 64 °F

High & Low Weather Summary for the Past Weeks

 TemperatureHumidityPressure
High81 °F (May 22, 3:20 PM)100% (May 19, 12:50 AM)30.12 "Hg (May 19, 12:50 AM)
Low43 °F (May 16, 1:50 AM)24% (May 22, 3:50 PM)29.56 "Hg (May 30, 1:50 AM)
Average59 °F72%29.93 "Hg
* Reported May 15 5:20 PM — May 30 5:20 PM, Offenbach, Weather by CustomWeather, © 2016

Note: Actual official high and low records may vary slightly from our data, if they occured in-between our weather recording intervals... More about our weather records

Advertising

Offenbach Weather History for the Previous 24 Hours

Scroll right to see more
 ConditionsComfort  
Time TempWeatherWind HumidityBarometerVisibility
5:20 PM
Mon, May 30
64 °FSprinkles. Broken clouds.10 mph83%29.62 "HgN/A
4:50 PM64 °FScattered showers. Broken clouds.9 mph83%29.62 "HgN/A
4:20 PM64 °FSprinkles. Partly sunny.8 mph83%29.62 "HgN/A
3:50 PM63 °FSprinkles. Partly sunny.12 mph88%29.62 "HgN/A
3:20 PM64 °FScattered showers. Broken clouds.12 mph83%29.62 "HgN/A
2:50 PM63 °FSprinkles. Partly sunny.10 mph88%29.62 "HgN/A
2:20 PM63 °FRain showers. Broken clouds.6 mph88%29.62 "HgN/A
1:50 PM63 °FRain showers. Broken clouds.9 mph88%29.62 "HgN/A
1:20 PM64 °FRain showers. Partly sunny.10 mph83%29.62 "HgN/A
12:50 PM64 °FPartly sunny.10 mph83%29.59 "HgN/A
12:20 PM63 °FDrizzle. Broken clouds.13 mph88%29.59 "HgN/A
11:50 AM61 °FDrizzle. Partly sunny.14 mph94%29.59 "HgN/A
11:20 AM61 °FDrizzle. Partly sunny.14 mph88%29.59 "HgN/A
10:50 AM61 °FDrizzle. Partly sunny.12 mph88%29.56 "Hg3 mi
10:20 AM59 °FDrizzle. Partly sunny.15 mph100%29.56 "Hg2 mi
9:50 AM64 °FBroken clouds.5 mph83%29.56 "HgN/A
9:20 AM61 °FDrizzle. Partly sunny.5 mph94%29.56 "Hg4 mi
8:50 AM61 °FDrizzle. Partly sunny.9 mph94%29.56 "Hg3 mi
8:20 AM61 °FLight rain. Partly sunny.9 mph94%29.56 "HgN/A
7:50 AM61 °FPartly sunny.7 mph94%29.56 "HgN/A
7:20 AM61 °FPartly sunny.7 mph94%29.56 "HgN/A
6:50 AM61 °FDrizzle. Partly sunny.7 mph94%29.56 "HgN/A
6:20 AM61 °FPassing clouds.7 mph94%29.56 "HgN/A
5:50 AM61 °FPassing clouds.7 mph94%29.56 "HgN/A
5:20 AM61 °FPartly cloudy.7 mph94%29.56 "HgN/A
4:50 AM61 °FLight rain. Partly cloudy.6 mph94%29.56 "HgN/A
4:20 AM61 °FSprinkles. Partly cloudy.7 mph94%29.56 "HgN/A
3:50 AM61 °FPassing clouds.13 mph94%29.56 "HgN/A
3:20 AM61 °FRain showers. Mostly cloudy.5 mph100%29.56 "HgN/A
2:50 AM61 °FSprinkles. Mostly cloudy.2 mph100%29.56 "HgN/A
2:20 AM61 °FLow clouds.6 mph94%29.56 "HgN/A
1:50 AM61 °FThunderstorms. Mostly cloudy.9 mph94%29.56 "Hg5 mi
1:20 AM61 °FThunderstorms. Passing clouds.7 mph94%29.62 "Hg4 mi
12:50 AM59 °FStrong thunderstorms. Overcast.14 mph100%29.62 "Hg1 mi
12:20 AM61 °FThundershowers. Overcast.8 mph94%29.62 "HgN/A
11:50 PM
Sun, May 29
63 °FThunderstorms. Mostly cloudy.9 mph94%29.62 "HgN/A
11:20 PM63 °FThunderstorms. Mostly cloudy.9 mph94%29.65 "HgN/A
10:50 PM64 °FRain showers. Mostly cloudy.8 mph94%29.65 "HgN/A
10:20 PM64 °FLight rain. Broken clouds.7 mph88%29.65 "HgN/A
9:50 PM66 °FLight rain. Broken clouds.7 mph83%29.65 "HgN/A
9:20 PM66 °FLight rain. Broken clouds.3 mph88%29.65 "HgN/A
8:50 PM68 °FBroken clouds.5 mph78%29.65 "HgN/A
8:20 PM70 °FBroken clouds.6 mph73%29.65 "HgN/A
7:50 PM72 °FBroken clouds.6 mph65%29.65 "HgN/A
7:20 PM72 °FPartly sunny.6 mph61%29.65 "HgN/A
6:50 PM72 °FPartly sunny.7 mph65%29.65 "HgN/A
6:20 PM72 °FPartly sunny.7 mph65%29.65 "HgN/A
Weather by CustomWeather, © 2016

See weather overviewHow to use our weather pages